Terminal Aerodrome Forecast
Issued by NWS

Home | Current Version | Previous Version | Text Only | Print | Product List | Glossary On
Versions: 1 2 3 4 5 6 7 8 9 10 11 12 13 14 15 16 17 18 19 20 21 22 23 24 25 26 27
000
FTUS43 KSGF 220500
TAFJLN
TAF
KJLN 220520Z 2206/2306 16012KT P6SM SCT020 OVC040
     FM220700 16012KT 6SM -DZ BR SCT010 OVC025
     FM221000 17012KT 2SM -RADZ BR OVC007
     FM221700 21014G20KT 5SM BR OVC008
     FM222200 24014G20KT P6SM OVC015
     FM230100 24013KT P6SM BKN025
     FM230400 26010KT P6SM SCT025=

USA.gov is the U.S. government's official web portal to all federal, state and local government web resources and services.